Home > Weather > Colchester > Past weeks

Flag for United Kingdom Past Weather in Colchester, England, United Kingdom — Yesterday and Last 2 Weeks

Now
55 °F

Mostly cloudy.


Feels Like: 52 °F
Forecast: 51 / 63 °F
Wind: 13 mph from Northwest

Location: Luton Airport

Current Time: Jun 26, 2016 at 7:31:51 AM

Latest Report: Jun 26, 2016 at 6:50 AM


Visibility: N/A

Pressure: 30.04 "Hg

Humidity: 88%

Dew Point: 52 °F

Location of ColchesterLocation

Past Weather in Colchester — Graph

°F

Colchester Temperature Yesterday

Maximum temperature yesterday: 64 °F (at 12:20 PM)
Minimum temperature yesterday: 50 °F (at 2:20 AM)
Average temperature yesterday: 57 °F

High & Low Weather Summary for the Past Weeks

 TemperatureHumidityPressure
High72 °F (Jun 20, 3:50 PM)100% (Jun 11, 6:20 AM)30.24 "Hg (Jun 11, 6:20 AM)
Low50 °F (Jun 15, 3:50 AM)57% (Jun 11, 3:20 PM)29.36 "Hg (Jun 14, 2:50 PM)
Average60 °F88%29.84 "Hg
* Reported Jun 11 6:20 AM — Jun 26 6:20 AM, Colchester, Weather by CustomWeather, © 2016

Note: Actual official high and low records may vary slightly from our data, if they occured in-between our weather recording intervals... More about our weather records

Advertising

Colchester Weather History for the Previous 24 Hours

Scroll right to see more
 ConditionsComfort  
Time TempWeatherWind HumidityBarometerVisibility
6:20 AM
Sun, Jun 26
55 °FMostly cloudy.13 mph94%30.04 "HgN/A
5:50 AM55 °FLow clouds.13 mph94%30.04 "HgN/A
5:20 AM55 °FLight rain. Low clouds.10 mph94%30.04 "HgN/A
4:50 AM54 °FLow clouds.10 mph100%30.01 "HgN/A
4:20 AM54 °FLight rain. Low clouds.12 mph100%30.01 "HgN/A
3:50 AM54 °FPartly cloudy.13 mph100%30.01 "HgN/A
3:20 AM54 °FOvercast.13 mph94%30.01 "HgN/A
2:50 AM54 °FOvercast.13 mph94%30.04 "HgN/A
2:20 AM54 °FPassing clouds.13 mph94%30.04 "HgN/A
1:50 AM54 °FPassing clouds.12 mph94%30.04 "HgN/A
1:20 AM54 °FPassing clouds.10 mph88%30.04 "HgN/A
12:50 AM54 °FCool.12 mph88%30.04 "HgN/A
12:20 AM55 °FCool.8 mph88%30.04 "HgN/A
11:50 PM
Sat, Jun 25
54 °FCool.9 mph94%30.04 "HgN/A
11:20 PM55 °FPassing clouds.9 mph88%30.04 "HgN/A
10:50 PM55 °FCool.13 mph94%30.04 "HgN/A
10:20 PM54 °FScattered clouds.6 mph94%30.04 "HgN/A
9:50 PM55 °FPartly sunny.2 mph88%30.04 "HgN/A
9:20 PM55 °FPassing clouds.3 mph82%30.04 "HgN/A
8:50 PM59 °FPartly sunny.9 mph77%30.01 "HgN/A
8:20 PM61 °FPassing clouds.10 mph72%30.01 "HgN/A
7:50 PM63 °FPassing clouds.12 mph68%30.01 "HgN/A
7:20 PM63 °FScattered clouds.10 mph68%30.01 "HgN/A
6:50 PM63 °FThundershowers. Partly sunny.9 mph64%30.01 "HgN/A
6:20 PM64 °FScattered clouds.12 mph60%29.98 "HgN/A
5:50 PM64 °FPartly sunny.12 mph60%29.98 "HgN/A
5:20 PM64 °FScattered clouds.13 mph60%29.98 "HgN/A
4:50 PM64 °FPassing clouds.12 mph60%30.01 "HgN/A
4:20 PM64 °FMild.12 mph60%30.01 "HgN/A
3:50 PM63 °FLight rain. Passing clouds.13 mph68%30.01 "HgN/A
3:20 PM63 °FMild.12 mph73%30.01 "HgN/A
2:50 PM59 °FLight rain. Passing clouds.10 mph77%30.01 "HgN/A
2:20 PM59 °FLight rain. Cloudy.12 mph82%30.01 "HgN/A
1:50 PM57 °FLight rain. Scattered clouds.14 mph82%30.01 "HgN/A
1:20 PM61 °FPartly sunny.15 mph68%30.01 "HgN/A
12:50 PM63 °FPartly sunny.7 mph68%30.01 "HgN/A
12:20 PM64 °FScattered clouds.6 mph64%30.01 "HgN/A
11:50 AM63 °FPartly sunny.7 mph73%30.01 "HgN/A
11:20 AM61 °FPartly sunny.7 mph77%30.01 "HgN/A
10:50 AM59 °FPartly sunny.7 mph82%30.01 "HgN/A
10:20 AM59 °FPartly sunny.7 mph82%30.01 "HgN/A
9:50 AM59 °FPartly sunny.7 mph82%30.01 "HgN/A
9:20 AM59 °FPassing clouds.7 mph82%30.01 "HgN/A
8:50 AM59 °FPassing clouds.6 mph88%30.04 "HgN/A
8:20 AM57 °FPassing clouds.3 mph88%30.04 "HgN/A
7:50 AM55 °FScattered clouds.5 mph94%30.04 "HgN/A
7:20 AM54 °FScattered clouds.9 mph100%30.01 "HgN/A
Weather by CustomWeather, © 2016

See weather overviewHow to use our weather pages